Theta_e
357 354 354 351 346 344 339 342 342 343 344 345 344 342 344 343 342 342 348 349 349 349 349 349 348 348 347 345 345 347 348 349 350 350 350 349 349 348 349 347 351 350 353
353 351 348 345 343 340 341 342 344 345 345 345 344 343 342 342 341 341 345 340 338 346 346 346 347 348 348 344 342 342 344 346 348 348 348 348 349 349 347 344 345 338 351
349 346 344 343 345 344 344 345 346 347 346 345 344 343 343 341 341 341 334 332 337 338 339 343 345 344 345 348 346 345 344 343 346 348 347 348 348 346 346 346 347 349 349
346 346 344 345 345 347 349 350 348 348 347 344 344 343 341 339 339 336 335 331 333 337 339 339 338 342 345 342 343 345 346 344 345 345 347 347 347 344 343 345 346 346 347
348 344 345 347 348 350 350 350 347 348 347 344 343 343 343 341 337 337 336 334 331 332 335 339 339 340 339 339 339 339 341 343 344 345 344 343 342 342 344 344 346 348 348
350 348 349 350 352 349 349 348 348 348 347 345 343 342 342 341 340 338 336 336 335 332 337 332 339 335 340 341 343 342 342 343 343 343 344 343 342 342 342 344 347 347 347
352 349 350 351 351 349 348 348 347 346 345 343 342 341 342 341 339 336 336 335 336 334 333 337 334 334 337 337 341 341 343 343 344 344 345 345 345 342 344 345 347 347 346
348 349 349 349 348 349 348 347 346 344 344 342 341 337 334 335 332 333 333 334 331 333 329 330 334 335 336 336 337 338 339 342 342 342 342 343 344 348 349 345 347 343 344
347 347 348 349 347 345 345 342 339 338 338 334 330 329 330 332 331 332 331 331 330 329 327 327 328 331 328 328 329 334 337 336 338 341 342 343 342 343 345 348 346 345 346
336 344 345 343 342 341 339 337 333 331 329 329 330 330 329 325 322 321 320 320 320 320 324 326 327 328 325 323 324 326 329 333 336 333 330 336 341 342 342 343 345 346 346
343 342 340 338 332 329 328 329 329 329 329 330 330 324 328 324 320 318 314 313 313 316 319 321 324 325 321 319 321 322 325 327 326 328 331 335 341 343 342 341 342 342 346
337 335 331 328 328 327 327 328 326 329 324 322 322 322 321 320 319 316 311 308 309 311 313 315 317 315 316 319 321 321 322 325 326 329 333 335 340 339 340 342 341 341 338
329 328 328 328 326 326 325 325 323 320 317 318 319 318 317 316 314 311 308 307 308 308 310 311 311 312 314 318 322 324 324 324 328 332 334 337 337 338 337 340 340 341 340
328 326 325 324 324 323 322 320 320 318 314 315 315 314 313 313 312 308 306 306 307 307 308 311 314 315 319 323 327 328 328 329 330 328 330 332 333 334 335 340 339 338 338
325 324 319 322 320 319 319 319 318 315 313 314 313 313 312 311 307 306 306 306 306 309 309 313 311 311 313 314 316 320 322 327 327 328 329 329 330 331 334 334 335 338 337
321 321 317 318 316 316 316 318 316 314 313 312 310 310 310 307 307 306 306 306 307 307 309 310 308 307 306 307 308 311 312 314 318 325 326 328 327 328 329 329 331 334 335
315 317 316 315 314 315 316 315 316 316 313 312 310 309 308 308 307 307 306 306 306 306 307 306 306 306 305 305 304 306 307 308 310 315 321 323 326 326 327 328 328 331 333
316 312 315 315 314 315 314 315 315 315 316 315 310 309 309 309 308 308 306 306 306 305 305 305 304 303 303 303 303 303 304 304 307 310 312 318 321 323 325 326 327 329 330
311 312 314 314 314 314 314 315 315 315 315 315 314 311 311 311 310 309 308 307 306 305 304 303 303 303 302 302 302 302 302 302 303 305 307 312 316 318 319 320 322 323 326
311 310 312 314 313 313 313 313 314 314 315 315 314 314 313 312 311 312 310 308 306 305 304 303 302 301 301 301 301 301 301 301 302 302 304 308 310 313 316 317 317 319 323
314 313 312 313 312 313 312 313 314 314 315 314 314 314 312 310 311 313 312 310 308 305 304 303 301 301 301 300 300 300 300 301 301 301 301 302 305 307 310 311 313 317 319
315 315 315 315 315 314 314 313 313 313 313 313 313 314 313 311 312 313 313 312 311 307 305 303 301 302 301 300 300 299 299 300 301 301 300 300 301 302 304 306 309 312 314
317 316 317 317 316 315 315 315 314 314 314 314 314 314 314 313 313 313 312 312 312 311 309 307 306 303 303 302 301 300 299 299 299 299 298 297 297 298 300 302 304 307 308
317 317 317 317 317 316 316 315 316 316 315 315 315 315 314 314 314 313 313 313 312 311 310 310 308 306 306 305 304 302 300 299 299 298 296 295 295 296 298 300 303 304 307
317 317 317 316 317 317 317 317 317 317 316 316 316 316 316 316 316 315 314 313 312 311 311 309 308 308 307 307 305 303 301 300 300 300 299 297 295 294 294 297 300 302 305
317 318 318 318 318 318 318 318 318 317 317 317 317 317 316 316 317 315 314 313 313 312 311 310 310 309 309 308 306 303 301 301 300 301 303 302 297 294 293 294 297 301 304
Wind_Speed
12 10 10 5 3 1 2 3 3 6 9 11 13 17 19 20 21 23 19 17 15 12 11 12 13 13 12 11 11 16 20 21 9 27 22 26 19 15 25 20 11 20 18
14 10 7 6 4 4 1 2 4 5 8 12 12 15 19 20 20 19 17 20 22 20 18 18 16 12 14 16 18 18 17 18 8 12 22 19 10 11 16 15 17 42 36
12 11 9 7 3 1 2 4 8 9 12 13 13 14 17 21 19 13 21 22 20 21 21 19 16 15 18 15 16 15 17 20 19 14 16 16 15 13 10 13 20 30 32
13 13 11 5 2 6 9 10 11 14 14 13 13 14 15 22 9 18 21 22 22 22 21 20 19 19 14 14 15 17 16 17 18 17 15 17 16 17 15 16 19 24 28
11 13 10 5 2 5 7 10 13 13 14 14 14 16 16 18 9 19 20 22 20 24 24 20 19 21 20 21 22 21 16 15 15 15 14 15 17 17 14 15 19 22 22
12 9 7 5 3 5 8 12 14 13 13 15 16 17 19 18 22 17 16 18 19 22 22 24 19 24 18 20 16 17 17 16 18 17 16 14 19 20 22 21 16 14 3
10 9 7 3 4 6 9 11 9 11 14 15 17 18 19 19 18 18 18 20 18 20 24 22 23 22 24 25 21 17 17 19 21 21 19 20 21 25 23 20 16 12 13
3 3 1 4 8 9 8 9 12 14 15 16 18 19 21 19 22 24 21 17 22 17 23 25 26 24 20 21 21 15 14 17 19 20 24 28 24 21 22 20 17 16 17
5 6 6 10 11 11 10 12 15 17 17 17 20 20 19 21 20 15 15 18 20 21 21 26 27 19 18 21 21 20 18 19 18 19 18 20 22 20 20 17 16 13 8
13 10 6 9 10 12 11 13 14 15 15 16 15 17 19 11 20 24 25 23 25 27 23 23 25 10 23 33 26 23 20 20 21 27 28 21 19 17 16 18 22 15 12
9 2 8 8 8 10 12 12 12 11 12 13 14 16 15 15 19 27 29 28 26 23 23 23 24 30 34 35 32 30 27 25 30 27 24 23 21 20 20 18 17 20 17
8 8 5 5 6 9 8 7 11 10 16 18 18 16 18 21 25 30 33 32 29 25 25 26 28 36 38 39 37 36 32 30 29 23 21 22 20 23 18 22 23 20 20
8 4 3 4 6 6 7 7 12 18 18 17 17 17 19 21 22 26 32 33 28 27 25 28 33 37 35 29 27 30 33 27 20 19 20 21 23 22 24 25 15 19 21
6 4 3 4 4 5 8 10 12 14 15 15 15 15 17 19 21 32 32 31 31 31 33 38 33 30 31 31 25 23 20 17 13 16 18 22 24 22 22 17 20 22 22
6 5 4 4 4 5 6 4 7 8 10 7 8 12 16 18 25 27 28 32 35 32 31 25 26 29 28 30 31 28 30 25 19 19 15 15 20 19 19 20 16 19 19
4 5 5 5 6 7 7 3 3 3 3 4 7 9 9 17 23 29 30 29 27 30 25 20 22 23 24 25 25 27 27 29 30 27 22 20 18 18 20 23 20 18 19
8 3 3 4 7 5 6 7 2 3 3 4 4 6 18 16 17 23 25 24 25 26 22 22 22 23 24 24 25 24 25 28 28 27 23 21 20 19 19 19 19 18 17
4 4 2 4 5 5 4 4 4 6 6 3 4 3 10 15 14 16 21 21 23 24 22 21 22 24 24 24 25 24 26 27 25 25 27 25 21 20 19 17 18 18 18
6 4 4 2 4 1 4 6 6 7 7 8 4 8 3 16 12 8 12 13 16 19 20 20 22 23 23 24 25 25 24 24 27 24 25 24 21 20 18 19 21 23 23
8 7 3 4 5 7 8 10 8 8 10 10 11 14 8 11 15 13 10 7 10 14 16 18 22 24 25 26 26 26 25 24 23 24 24 22 22 22 20 19 18 21 20
6 6 3 3 7 7 8 10 11 11 12 12 13 16 12 13 17 17 15 11 10 10 12 15 25 26 25 26 27 26 26 25 24 24 24 24 23 24 22 21 22 23 21
2 2 3 5 4 4 8 8 11 11 13 14 15 17 16 14 16 19 17 17 13 10 10 14 22 29 29 27 27 27 27 26 25 24 24 25 25 26 27 25 24 21 20
5 3 5 4 5 2 8 7 9 11 12 14 15 16 16 17 19 19 20 21 15 15 13 16 25 23 28 31 30 28 27 28 28 26 29 31 29 28 26 25 24 23 22
8 9 7 7 3 6 7 8 10 9 11 14 15 15 18 18 18 20 19 17 18 17 15 19 27 24 24 27 32 33 33 32 32 35 33 31 30 29 27 26 26 25 24
19 17 8 8 7 5 7 10 11 11 13 13 13 15 20 23 25 21 18 19 14 19 21 26 28 26 29 31 27 33 33 34 36 38 38 33 32 31 29 28 27 25 25
16 13 10 11 8 9 10 11 11 13 15 14 16 18 21 24 26 20 18 19 22 22 22 25 24 28 32 29 26 28 33 37 39 38 35 33 32 29 24 24 25 27 26
Wind_Direction
141 164 146 153 118 238 143 101 53 23 351 349 2 357 353 352 347 348 354 358 340 331 326 314 305 308 309 303 290 273 266 263 283 276 271 281 291 278 299 297 279 308 260
158 151 162 150 139 127 40 10 19 340 340 349 7 359 352 347 346 348 5 355 352 348 332 318 310 302 292 293 284 282 277 274 260 275 290 288 283 277 285 294 262 257 287
148 166 147 149 161 261 55 27 348 352 339 343 355 353 353 344 344 5 356 353 345 339 337 337 331 318 300 297 299 291 288 278 274 255 265 286 296 301 299 251 239 266 274
170 174 152 142 51 349 356 350 335 335 335 335 335 338 345 343 5 3 358 357 346 338 332 327 324 322 316 312 299 288 291 289 281 273 277 282 286 295 287 267 268 269 277
188 146 152 171 237 320 333 331 323 323 323 327 327 331 336 336 343 348 345 346 344 333 333 335 330 326 310 298 293 291 285 285 284 273 267 275 278 287 278 283 266 265 276
181 166 162 194 252 312 326 327 330 320 326 331 328 331 331 330 326 329 337 342 337 333 326 328 332 323 333 334 330 284 277 275 272 273 263 256 272 280 294 289 289 277 283
178 177 187 230 292 321 315 327 333 336 337 334 333 329 328 332 339 345 338 338 332 328 327 331 328 319 324 326 319 311 300 286 275 275 263 259 264 276 282 282 287 272 254
245 243 251 331 346 348 353 358 3 354 348 340 340 353 351 344 338 336 339 336 328 336 333 327 325 323 323 327 322 319 313 304 291 289 274 275 278 279 272 269 269 255 266
340 338 17 27 11 1 5 0 348 349 346 351 346 348 342 352 350 349 353 353 343 347 344 338 333 332 10 0 350 336 329 315 320 314 313 279 279 279 276 275 256 247 255
43 312 15 27 14 343 14 9 354 351 343 343 335 337 331 53 38 29 20 18 2 345 335 330 328 318 337 342 341 330 314 307 311 311 310 297 285 281 277 261 255 244 234
147 96 39 11 347 22 9 355 342 332 327 338 359 357 52 36 16 14 15 11 354 337 328 320 313 312 319 320 319 312 303 300 298 298 294 291 278 272 263 260 255 246 241
89 62 23 5 26 9 359 337 333 4 18 13 9 11 9 3 356 354 354 350 346 335 323 317 314 315 311 306 304 301 295 296 301 285 277 274 272 269 250 246 257 250 249
83 79 57 57 34 10 331 25 31 41 24 10 12 7 359 353 353 351 348 344 343 336 324 318 312 310 312 311 305 308 303 293 287 282 282 278 273 285 291 252 246 245 247
96 90 55 104 60 34 36 42 43 45 24 15 14 4 357 355 356 345 344 343 339 335 332 332 331 326 322 313 321 319 315 307 278 299 298 303 306 316 318 280 257 252 245
100 105 26 113 58 34 50 64 63 63 40 40 25 15 9 359 348 350 350 343 340 346 340 344 351 347 345 346 349 350 350 331 328 322 314 313 307 316 317 311 283 269 265
117 86 60 21 36 30 13 83 106 69 48 79 45 49 28 4 6 358 352 354 355 351 347 349 350 348 346 342 338 333 334 338 341 337 334 318 311 318 318 314 306 281 266
78 25 70 39 37 7 30 20 33 262 216 171 72 54 23 20 14 6 359 3 0 360 355 346 339 339 335 335 334 333 329 327 325 330 333 330 331 331 324 321 305 293 289
131 78 344 62 52 13 19 345 352 19 21 173 141 107 27 11 0 359 8 8 3 1 353 341 333 330 327 326 325 325 324 324 325 326 319 318 322 323 323 324 315 319 322
60 33 348 36 87 345 346 334 353 0 357 339 167 238 340 344 316 320 5 7 359 358 350 341 336 328 324 322 320 319 318 318 316 314 316 321 324 322 320 317 315 317 315
121 72 59 341 24 18 0 341 344 341 323 328 333 327 316 312 314 304 330 339 338 345 350 338 337 338 331 325 322 321 319 319 317 318 315 317 308 298 295 299 302 300 298
158 143 57 321 22 16 350 343 325 319 320 331 332 326 305 296 304 316 339 329 313 320 337 343 351 343 333 330 328 324 319 316 316 314 312 311 310 303 298 294 292 288 292
325 15 9 356 351 321 338 305 293 335 326 332 327 324 330 311 306 331 337 331 328 306 301 322 336 351 345 333 326 324 325 320 318 317 313 309 306 301 294 288 284 282 284
297 329 308 300 304 311 312 304 338 312 329 327 321 322 333 332 324 332 332 326 334 320 304 294 327 328 341 341 342 335 321 319 318 312 310 305 294 286 281 279 278 277 277
284 277 291 297 287 303 292 346 302 327 323 315 323 339 324 318 325 320 318 323 323 329 316 300 311 313 323 332 334 337 335 330 324 318 316 302 290 284 278 269 265 262 261
280 283 297 308 304 313 351 328 326 317 310 316 335 333 324 320 313 312 326 327 332 325 317 318 314 311 315 320 323 331 331 331 332 333 327 314 297 285 273 268 264 262 260
292 320 330 321 339 342 310 301 305 306 310 327 326 313 306 310 314 327 336 340 335 331 331 323 320 316 315 314 324 330 328 331 332 332 328 324 316 299 278 268 266 260 257